Location: Tuttlingen
(47.9853°N, 8.8165°E)
Time: 14:49:16
(UTC+01:00)

N. Korean satellite - Visible Passes

Search period start: 25 February 2018 00:00
Search period end: 07 March 2018 00:00
Orbit: 459 x 514 km, 97.2° (Epoch: 24 February)

Date Brightness Start Highest point End Pass type
(mag) Time Alt. Az. Time Alt. Az. Time Alt. Az.
25 Feb 9.8 06:18:18 10° NE 06:21:05 20° E 06:23:54 10° SE visible
25 Feb 7.6 18:30:35 10° S 18:33:57 50° W 18:37:25 10° NNW visible
26 Feb 10.6 05:55:55 10° ENE 05:57:08 11° E 05:58:19 10° ESE visible
27 Feb 10.0 19:18:08 10° SW 19:20:13 15° W 19:22:18 10° NW visible
28 Feb 9.1 18:53:14 10° SSW 18:56:15 27° W 18:59:20 10° NW visible
01 Mar 9.9 06:16:46 10° NE 06:19:33 20° E 06:22:20 10° SE visible
02 Mar 10.7 05:54:28 10° ENE 05:55:34 11° E 05:56:40 10° ESE visible
03 Mar 10.0 19:16:24 10° SW 19:18:36 16° W 19:20:50 10° NW visible
04 Mar 9.0 18:51:33 10° SSW 18:54:38 28° W 18:57:48 10° NW visible
05 Mar 10.0 06:15:13 10° NE 06:17:58 19° E 06:20:43 10° SE visible
06 Mar 10.7 05:53:01 10° ENE 05:53:58 11° E 05:54:54 10° ESE visible
